Погода в Кузнецове

Россия / Республика Марий Эл     56°41′33″N   48°02′23″E
темп.,
°C
ветер,
м/с
пор.,
м/с
влажн.,
%
обл.,
%
осадки,
мм/ч
давл.,
гПа
погр.,
м
27 октября, ср
ср2700:000юз41086100 0.0 1017318
03:00+1юз4108670 0.0 1017339
06:000юз4109095 0.0 1016297
09:00+2юз41082100 0.0 1015434
12:00+4юз51072100 0.0 1014627
15:00+5юз51167100 0.0 1012732
18:00+5юз61366100 0.1 1010724
21:00+5юз71367100 0.1 1008868
28 октября, чт
чт2800:00+3зюз61296100 0.2 1008934
03:00+4зюз61293100 0.3 10081008
06:00+5зюз51188100 0.1 1008891
09:00+5зюз51084100 0.2 1010840
12:00+7зюз587697 0.0 1010914
15:00+7зюз5877100 0.1 1010847
18:00+5з3689100 0.3 1011801
21:00+5сз3687100 0.9 1013944
29 октября, пт
пт2900:00+1ссв6973100 0.2 1017699
03:00−3ссв510775 0.2 1022537
06:00−3с48755 0.0 1026469
09:00−2ссв236477 0.0 1028403
12:00+1сз00435 0.0 1029575
15:00+1ююз24426 0.0 1028579
18:00−1ююз4957100 0.0 1028315
21:000ююз51355100 0.1 1026546
30 октября, сб
сб3000:00+2юз61566100 0.4 1023676
03:00+4зюз61483100 0.4 1022643
06:00+4зюз6159296 0.0 1022589
09:00+5зюз61492100 0.0 1022607
12:00+7з71386100 0.0 1022693
15:00+7з51291100 0.0 1023703
18:00+7зюз41090100 0.0 1024374
21:00+7зюз41095100 0.1 1025355
31 октября, вс
вс3100:00+7зюз4995100 0.0 1025299
03:00+7зюз4895100 0.0 1026246
06:00+7юз4992100 0.0 1026281
09:00+6юз49825 0.0 1026295
12:00+9зюз51064100 0.0 1025486
15:00+9зюз5126743 0.0 1025548
18:00+7зюз5137753 0.0 1025448
21:00+6зюз4128571 0.0 1025393